#timestamp,LO_Frequency,Hit,StdDev 
1506920415.8,286046986.4,N
1506920435.6,286046988.1,N
1506920455.4,286046987.5,N
1506920475.3,286046986.0,Y
1506920495.1,286046997.0,P
1506920496.0,286046997.0,N
1506920515.8,286046997.3,N
1506920535.7,286046997.8,N
1506920555.5,286046998.9,N
1506920575.3,286046999.2,N
1506920595.2,286046995.0,N
1506920615.9,286046996.3,N
1506920635.7,286046992.5,N
1506920655.5,286046996.4,N
1506920675.4,286046991.7,N
1506920695.2,286046992.8,N
1506920715.0,286046991.0,N
1506920715.9,286046991.0,N
1506920735.8,286046994.7,N
1506920755.6,286046991.8,N
1506920775.4,286046994.3,N
1506920795.3,286046993.7,N
1506920815.1,286046990.2,Y
1506920835.8,286046993.3,P
1506920855.7,286046992.4,P
1506920875.5,286046990.1,P
1506920895.3,286046986.9,Y
1506920915.2,286046993.9,P
1506920935.9,286046994.3,P
1506920955.7,286046992.3,P
1506920975.6,286046993.2,Y
1506920995.4,286046997.6,P
1506921015.2,286046997.1,N
1506921035.1,286047000.0,N
1506921036.0,286047000.0,N
1506921055.8,286047001.7,N
1506921075.6,286047004.1,N
1506921095.5,286047004.0,N
1506921115.3,286047005.8,N
1506921135.1,286047003.2,N
1506921155.9,286047005.1,N
1506921175.7,286047005.7,N
1506921195.5,286047006.7,N
1506921215.3,286047006.0,N
1506921235.2,286047003.1,N
1506921255.0,286047002.6,N
1506921255.9,286047002.6,N
1506921275.7,286047003.5,N
1506921295.6,286047007.1,N
1506921315.4,286047006.9,N
1506921335.2,286047007.8,N
1506921355.1,286047007.4,N
1506921356.0,286047007.4,N
1506921375.8,286047005.8,N
1506921395.6,286047003.0,N
1506921415.5,286047004.1,N
1506921435.3,286047002.4,N
1506921455.1,286047002.3,N
1506921475.9,286046998.4,N
1506921495.7,286046995.1,N
1506921515.5,286046996.5,N
1506921535.4,286047001.1,N
1506921555.2,286047005.4,N
1506921575.0,286047010.0,Y
1506921575.9,286047010.0,P
1506921595.8,286047008.5,N
1506921615.6,286047011.1,P
1506921635.4,286047014.9,Y
1506921655.3,286047011.6,P
1506921675.1,286047013.4,P
1506921676.0,286047013.4,P
1506921695.8,286047010.9,Y
1506921715.7,286046999.9,P
1506921735.5,286047000.9,N
1506921755.3,286046998.3,N
1506921775.2,286046998.1,N
1506921795.9,286047000.0,N
1506921815.7,286047004.8,N
1506921835.6,286047004.6,N
1506921855.4,286047006.4,N
1506921875.2,286047008.7,N
1506921895.0,286047011.0,N
1506921896.0,286047011.0,N
1506921915.8,286047012.7,N
1506921935.6,286047013.2,N
1506921955.4,286047010.4,N
1506921975.3,286047010.9,N
1506921995.1,286047012.7,N
1506922015.8,286047013.6,N
1506922035.7,286047013.7,N
1506922055.5,286047012.8,N
1506922075.3,286047012.3,N
1506922095.2,286047014.4,N
1506922115.9,286047014.9,N
1506922135.7,286047013.5,N
1506922155.6,286047011.0,N
1506922175.4,286047014.7,N
1506922195.2,286047015.0,N
1506922215.1,286047016.7,Y
1506922216.0,286047016.7,P
1506922235.8,286047006.6,N
1506922255.6,286047010.8,N
1506922275.4,286047004.9,N
1506922295.3,286047001.9,N
1506922315.1,286047002.6,N
1506922335.8,286046999.7,N
1506922355.7,286046997.3,N
1506922375.5,286046997.9,N
1506922395.3,286046994.5,N
1506922415.2,286046993.2,N
1506922435.9,286046989.0,N
1506922455.7,286046991.5,N
1506922475.6,286046985.9,N
1506922495.4,286046987.4,N
1506922515.2,286046984.2,N
1506922535.0,286046986.3,N
1506922536.0,286046986.3,N
1506922555.8,286046982.3,N
1506922575.6,286046981.3,N
1506922595.4,286046978.2,N
1506922615.3,286046978.6,N
1506922635.1,286046978.6,N
1506922655.8,286046979.2,N
1506922675.7,286046982.0,N
1506922695.5,286046979.4,N
1506922715.3,286046978.9,N
1506922735.2,286046974.8,N
1506922755.9,286046971.1,N
1506922775.7,286046973.8,N
1506922795.6,286046971.5,N
1506922815.4,286046971.4,N
1506922835.2,286046971.1,N
1506922855.1,286046972.3,N
1506922856.0,286046972.3,N
1506922875.8,286046972.5,Y
1506922895.6,286046990.6,P
1506922915.5,286046991.1,N
1506922935.3,286046994.4,N
1506922955.1,286046991.7,N
1506922975.8,286046993.6,N
1506922995.7,286046992.9,N
1506923015.5,286046989.7,N
1506923035.3,286046991.6,N
1506923055.2,286046992.0,N
1506923075.9,286046990.2,Y
1506923095.7,286047002.1,P
1506923115.6,286047002.1,N
1506923135.4,286047002.2,N
1506923155.2,286046999.0,N
1506923175.1,286047000.7,N
1506923176.0,286047000.7,N
1506923195.8,286047001.3,N
1506923215.6,286047001.9,N
1506923235.5,286047001.4,N
1506923255.3,286047001.5,N
1506923275.1,286046999.7,N
1506923295.9,286046998.2,N
1506923315.7,286047002.5,N
1506923335.5,286046999.7,N
1506923355.4,286047000.6,N
1506923375.2,286046998.7,N
1506923395.0,286047001.1,N
1506923395.9,286047001.1,N
1506923415.7,286046998.6,N
1506923435.6,286047000.5,N
1506923455.4,286046998.4,N
1506923475.2,286046997.9,N
1506923495.1,286046996.7,N
1506923496.0,286046996.7,N
1506923515.8,286046999.2,N
1506923535.6,286047001.8,N
1506923555.5,286047002.7,N
1506923575.3,286047000.8,N
1506923595.1,286047002.2,N
1506923615.9,286047005.8,N
1506923635.7,286047005.6,N
1506923655.5,286046998.3,N
1506923675.4,286046997.1,N
1506923695.2,286046999.8,N
1506923715.0,286047005.4,N
1506923715.9,286047005.4,N
1506923735.8,286047008.5,Y
1506923755.6,286047011.6,P
1506923775.4,286047011.3,N
1506923795.3,286047011.4,N
1506923815.1,286047015.1,Y
1506923816.0,286047015.1,P
1506923835.8,286047008.6,N
1506923855.7,286047003.0,N
1506923875.5,286047005.9,N
1506923895.3,286047007.3,N
1506923915.2,286047007.1,N
1506923935.9,286047010.3,Y
1506923955.7,286047003.9,P
1506923975.6,286047005.9,N
1506923995.4,286046999.7,N
